Home > Weather > Strasbourg > Past weeks

Flag for France Past Weather in Strasbourg, Alsace, France — Yesterday and Last 2 Weeks

Now
86 °F

Sunny.


Feels Like: 89 °F
Forecast: 64 / 92 °F
Wind: 2 mph from Northeast

Location: Strasbourg Airport

Current Time: Aug 26, 2016 at 8:42:49 PM

Latest Report: Aug 26, 2016 at 8:00 PM


Visibility: 10 mi

Pressure: 30.01 "Hg

Humidity: 55%

Dew Point: 68 °F

Location of StrasbourgLocation

Past Weather in Strasbourg — Graph

°F

Strasbourg Temperature Yesterday

Maximum temperature yesterday: 90 °F (at 4:00 PM)
Minimum temperature yesterday: 57 °F (at 6:30 AM)
Average temperature yesterday: 73 °F

High & Low Weather Summary for the Past Weeks

 TemperatureHumidityPressure
High97 °F (Aug 26, 5:00 PM)100% (Aug 13, 3:00 AM)30.39 "Hg (Aug 13, 3:00 AM)
Low52 °F (Aug 22, 3:30 AM)32% (Aug 26, 5:00 PM)29.83 "Hg (Aug 17, 6:00 PM)
Average68 °F73%30.12 "Hg
* Reported Aug 11 7:00 PM — Aug 26 7:30 PM, Strasbourg, Weather by CustomWeather, © 2016

Note: Actual official high and low records may vary slightly from our data, if they occured in-between our weather recording intervals... More about our weather records

Advertising

Strasbourg Weather History for the Previous 24 Hours

Scroll right to see more
 ConditionsComfort  
Time TempWeatherWind HumidityBarometerVisibility
7:30 PM
Fri, Aug 26
90 °FSunny.3 mph49%30.01 "Hg10 mi
6:30 PM95 °FPassing clouds.5 mph34%30.01 "HgN/A
6:00 PM95 °FSunny.3 mph34%30.01 "Hg10 mi
5:30 PM95 °FPassing clouds.5 mph34%30.01 "HgN/A
5:00 PM97 °FPassing clouds.3 mph32%30.01 "HgN/A
4:30 PM95 °FPassing clouds.5 mph39%30.01 "HgN/A
4:00 PM95 °FSunny.2 mph36%30.04 "Hg10 mi
3:30 PM95 °FSunny.2 mph36%30.04 "Hg10 mi
3:00 PM93 °FSunny.3 mph39%30.04 "Hg10 mi
2:30 PM91 °FPassing clouds.5 mph41%30.04 "HgN/A
2:00 PM91 °FPassing clouds.6 mph44%30.04 "HgN/A
1:30 PM90 °FPassing clouds.5 mph46%30.04 "HgN/A
1:00 PM88 °FPassing clouds.3 mph55%30.04 "HgN/A
12:30 PM88 °FPassing clouds.5 mph55%30.04 "HgN/A
12:00 PM86 °FSunny.3 mph59%30.04 "Hg10 mi
11:30 AM82 °FPassing clouds.6 mph62%30.07 "HgN/A
11:00 AM81 °FPassing clouds.6 mph62%30.07 "HgN/A
10:30 AM79 °FPassing clouds.5 mph65%30.07 "HgN/A
10:00 AM75 °FPassing clouds.5 mph69%30.07 "HgN/A
9:30 AM73 °FPassing clouds.3 mph74%30.07 "HgN/A
9:00 AM70 °FPassing clouds.5 mph83%30.04 "HgN/A
8:30 AM68 °FPassing clouds.3 mph83%30.04 "HgN/A
8:00 AM66 °FSunny.2 mph94%30.04 "Hg10 mi
7:30 AM64 °FClear.2 mph94%30.04 "Hg10 mi
7:00 AM61 °FClear.2 mph100%30.04 "Hg4 mi
6:30 AM61 °FClear.3 mph100%30.04 "Hg5 mi
6:00 AM63 °FClear.1 mph94%30.04 "Hg4 mi
5:30 AM61 °FClear.1 mph100%30.04 "Hg4 mi
5:00 AM61 °FClear.2 mph100%30.01 "Hg10 mi
4:30 AM61 °FClear.2 mph94%30.01 "Hg10 mi
4:00 AM63 °FClear.1 mph94%30.01 "Hg10 mi
3:30 AM63 °FClear.2 mph94%30.01 "Hg10 mi
3:00 AM63 °FClear.2 mph94%30.01 "Hg10 mi
2:30 AM64 °FClear.1 mph88%30.01 "Hg10 mi
2:00 AM64 °FClear.1 mph88%30.01 "Hg10 mi
1:30 AM64 °FClear.2 mph88%30.01 "Hg10 mi
1:00 AM64 °FClear.No wind94%30.01 "Hg10 mi
12:30 AM64 °FClear.3 mph94%30.01 "Hg10 mi
12:00 AM66 °FClear.3 mph88%30.01 "Hg10 mi
11:00 PM
Thu, Aug 25
68 °FMild.3 mph83%30.01 "HgN/A
10:00 PM70 °FClear.5 mph78%30.01 "Hg10 mi
9:30 PM72 °FClear.3 mph78%30.01 "Hg10 mi
9:00 PM73 °FClear.2 mph74%29.98 "HgN/A
8:00 PM81 °FSunny.3 mph62%29.98 "Hg10 mi
Weather by CustomWeather, © 2016

See weather overviewHow to use our weather pages